Regional Weather Roundup
Issued by NWS

Home | Current Version | Previous Version | Graphics & Text | Print | Product List | Glossary On
Versions: 1 2 3 4 5 6 7 8 9 10 11 12 13 14 15 16 17 18 19 20 21 22 23 24 25 26 27 28 29 30 31 32 33 34 35 36 37 38 39 40 41 42 43 44 45 46 47 48 49 50
000
ASUS43 KMKX 240259
RWRWI

WISCONSIN REGIONAL WEATHER ROUNDUP
NATIONAL WEATHER SERVICE MILWAUKEE/SULLIVAN WI
900 PM CST TUE JAN 23 2018

NOTE: "FAIR" INDICATES FEW OR NO CLOUDS BELOW 12,000 FEET WITH NO
SIGNIFICANT WEATHER AND/OR OBSTRUCTIONS TO VISIBILITY.

WIZ001-002-006>008-014>016-023>028-240400-
NORTHWEST WISCONSIN

CITY           SKY/WX    TMP DP  RH WIND       PRES   REMARKS
SUPERIOR ARPT  FAIR      11   6  81 CALM      30.17S
ASHLAND        FAIR      10   9  95 S3        30.17R
HAYWARD        FAIR       8   4  83 CALM      30.14S
SIREN          FAIR       7   3  84 CALM      30.16S
CUMBERLAND     FAIR       5   3  92 CALM      30.13S
RICE LAKE      FAIR       9   7  93 CALM      30.16S
CHETEK         FAIR      11   9  92 CALM      30.15S
LADYSMITH      CLOUDY    21  16  80 N5        30.15R WCI  15
EAU CLAIRE     MOCLDY    18  12  79 CALM      30.16R
MENOMONIE      MOCLDY    13  10  89 CALM      30.17R
NEW RICHMOND   FAIR       8   4  84 E3        30.16R
OSCEOLA        FAIR       8   4  87 CALM      30.20R
$$

WIZ003>005-009-010-017-018-240400-
NORTH CENTRAL WISCONSIN

CITY           SKY/WX    TMP DP  RH WIND       PRES   REMARKS
MANITOWISH WTR CLOUDY    13  13 100 CALM      30.09R
ARBOR VITAE    FLURRIES  17  14  88 CALM      30.08R
WOODRUFF       FLURRIES  17  14  88 CALM      30.08R
RHINELANDER    FAIR      11   9  92 CALM      30.09R
EAGLE RIVER    FLURRIES  14  10  82 N6        30.07R WCI   5
LAND O LAKES   FLURRIES  14  10  86 N6        30.09R WCI   5
PHILLIPS       FAIR      13  11  90 CALM      30.11R
TOMAHAWK       FLURRIES  19  15  86 NW3       30.10R
MEDFORD        CLOUDY    18  14  86 N3        30.10R
MERRILL        CLOUDY    21  17  84 NW3       30.11R
$$

WIZ029-030-035-036-043>047-240400-
CENTRAL WISCONSIN

CITY           SKY/WX    TMP DP  RH WIND       PRES   REMARKS
WAUSAU         FAIR      20  15  81 NW5       30.10R WCI  13
MOSINEE        CLOUDY    21  18  86 N9        30.12R WCI  11
MARSHFIELD     CLOUDY    21  17  84 NW7       30.11R WCI  12
STEVENS POINT  CLOUDY    21  18  89 NW3       30.12R
WAUPACA        CLOUDY    27  19  72 NW7       30.12R WCI  19
WAUTOMA        CLOUDY    24  19  81 NW9       30.13R WCI  14
WISC RAPIDS    CLOUDY    22  16  78 NW9       30.14R WCI  12
CAMP DOUGLAS   NOT AVBL
$$

WIZ011>013-019>022-031-037>040-048>050-240400-
NORTHEAST WISCONSIN

CITY           SKY/WX    TMP DP  RH WIND       PRES   REMARKS
ANTIGO         FAIR      16  12  83 NW8       30.07S WCI   6
SHAWANO        FAIR      21  17  83 CALM      30.11S
OCONTO         FAIR      20  16  82 CALM      30.11R
STURGEON BAY   CLOUDY    20  15  81 NW14      30.11R WCI   7
GREEN BAY      FAIR      24  17  74 NW12      30.11R WCI  13
MANITOWOC      CLOUDY    25  19  78 N13       30.10R WCI  14
APPLETON       CLOUDY    25  16  68 NW6       30.08R WCI  18
CLINTONVILLE   FAIR      23  16  74 N6        30.11S WCI  16
OSHKOSH        CLOUDY    26  19  74 N12       30.11R WCI  16
$$

WIZ032>034-041-042-053>061-240400-
SOUTHWEST WISCONSIN

CITY           SKY/WX    TMP DP  RH WIND       PRES   REMARKS
LA CROSSE      CLOUDY    24  17  74 CALM      30.18S
SPARTA         CLOUDY    22  19  91 NW5       30.18R WCI  15
VIROQUA        CLOUDY    21  20  97 NW8       30.13S WCI  11
BOSCOBEL       CLOUDY    26  20  77 NW6       30.18R WCI  19
PRAIRIE DU CHI CLOUDY    24  18  76 NW6       30.18S WCI  17
PLATTEVILLE    CLOUDY    25  23  93 NW7       30.15R WCI  17
$$

WIZ056-057-062-063-064-067-068-240400-
SOUTH CENTRAL WISCONSIN

CITY           SKY/WX    TMP DP  RH WIND       PRES   REMARKS
REEDSBURG      CLOUDY    24  19  83 W5        30.13R WCI  18
BARABOO/DELLS  CLOUDY    24  19  83 NW3       30.12S
LONE ROCK      NOT AVBL
MINERAL POINT  CLOUDY    27  27 100 NW6       30.13R WCI  20
MADISON        CLOUDY    25  20  81 N7        30.13R WCI  17
MIDDLETON      CLOUDY    27  23  87 NW7       30.13R WCI  19
WATERTOWN      CLOUDY    26  23  88 W6        30.11R WCI  19
MONROE         CLOUDY    27  23  86 NW5       30.11R WCI  21
JANESVILLE     CLOUDY    28  27  93 N3        30.13R
$$

WIZ051-052-058>065-066-070>072-240400-
SOUTHEAST WISCONSIN

CITY           SKY/WX    TMP DP  RH WIND       PRES   REMARKS
MILWAUKEE      CLOUDY    29  22  75 W6        30.10R WCI  23
WAUKESHA       CLOUDY    25  21  86 NW7       30.11R WCI  17
MILWAUKEE/TIMM CLOUDY    27  19  74 W5        30.10S WCI  21
RACINE         CLOUDY    28  23  81 W5        30.12R WCI  23
BURLINGTON     CLOUDY    26  22  84 W6        30.12R WCI  19
KENOSHA        CLOUDY    27  22  81 W7        30.11R WCI  19
FOND DU LAC    CLOUDY    28  20  71 NW8       30.10R WCI  20
SHEBOYGAN      MOCLDY    26  22  84 N7        30.09R WCI  18
WEST BEND      CLOUDY    28  23  80 NW6       30.09R WCI  22
JUNEAU         CLOUDY    26  21  83 W3        30.11R
$$

LSZ147-162-240400-
LAKE SUPERIOR

STATION/POSITION TIME  TEMP    WIND        PRES    WAVE
                       AIR SEA DIR/SP/G            HT/PER
                 (UTC) (F)     (DEG/KT/KT) (MB)    (FT/S)
DEVILS ISLAND    0200   23     130/  4/  4 1022.6R
SAXON HARBOR     0240   20     160/  3/  4 1021.3R
$$

LMZ867-665-643>646-240400-
LAKE MICHIGAN

STATION/POSITION TIME  TEMP    WIND        PRES    WAVE
                       AIR SEA DIR/SP/G            HT/PER
                 (UTC) (F)     (DEG/KT/KT) (MB)    (FT/S)
NORTHPORT PIER   0240   19     310/ 10/ 16 1018.6R
KEWAUNEE LAKESHO 0230   23     300/  6/ 10 1018.3R
SHEBOYGAN LAKESH 0200   27     330/  7/  9 1019.7R
PORT WASHINGTON  0230   29     290/  4/  5 1020.3R
MILWAUKEE LAKESH 0240   29     300/  5/  7   N/A
KENOSHA   LAKESH 0200   28     300/  5/  9 1019.3
$$

TC  - TEMPERATURE IN CELSIUS
VSB - VISIBILITY IN STATUTE MILES
WCI - WIND CHILL INDEX
HX  - HEAT INDEX




USA.gov is the U.S. government's official web portal to all federal, state and local government web resources and services.